Location: Unspecified
(0.0000°N, 0.0000°E)
Time: 08:29:14
(UTC+00:00)

Tiros 1 despin weight - Pass Details

Date: 12 October 2023
Orbit: 583 x 627 km, 48.2° (Epoch: 05 December)

Event Time Altitude Azimuth Distance (km) Brightness Sun altitude
Rises 22:32:27 0° 346° (NNW) 2,804 - -70.1°
Reaches altitude 10° 22:35:15 10° 3° (N) 1,899 - -70.7°
Maximum altitude 22:38:25 20° 50° (NE) 1,381 - -71.4°
Drops below altitude 10° 22:41:34 10° 97° (E) 1,893 - -72.1°
Sets 22:44:20 0° 115° (ESE) 2,793 - -72.8°
